ES0THZ-9 Weather Reports


time (UTC)temp
F
wind
direction
speed
knots
gust
knots
rain 1hr
in
rain 24hr
in
rain mn
in
humidity
%
barometer
mb
20260506155022 51 55 6.1 9.6 0.00 0.00 0.00 51 1012.4
20260506154019 52 60 5.2 8.7 0.00 0.00 0.00 50 1012.4
20260506153017 52 33 2.6 6.1 0.00 0.00 0.00 49 1012.5
20260506152015 53 19 1.7 5.2 0.00 0.00 0.00 49 1012.6
20260506151014 54 90 1.7 5.2 0.00 0.00 0.00 51 1012.8
20260506145510 54 330 0.9 4.3 0.00 0.00 0.00 49 1012.8
20260506144507 54 205 1.7 3.5 0.00 0.00 0.00 49 1012.9
20260506143506 55 90 1.7 5.2 0.00 0.00 0.00 47 1013.0
20260506142504 54 109 2.6 4.3 0.00 0.00 0.00 46 1012.9
20260506141501 54 101 3.5 6.1 0.00 0.00 0.00 46 1013.0
20260506135959 53 152 2.6 5.2 0.00 0.00 0.00 49 1013.3
20260506134958 53 129 4.3 8.7 0.00 0.00 0.00 48 1013.4
20260506133955 53 105 5.2 7.8 0.00 0.00 0.00 49 1013.4
20260506132953 53 151 3.5 6.1 0.00 0.00 0.00 51 1013.7
20260506132031 53 148 3.5 7.8 0.00 0.00 0.00 55 1013.7
20260506130948 53 129 5.2 7.8 0.00 0.00 0.00 54 1013.8
20260506125947 53 131 4.3 7.8 0.00 0.00 0.00 53 1013.9
20260506124945 53 124 3.5 7.8 0.00 0.00 0.00 55 1013.8
20260506123944 53 119 5.2 7.8 0.00 0.00 0.00 52 1013.8
20260506123001 52 117 5.2 9.6 0.00 0.00 0.00 52 1013.9
20260506121939 53 114 5.2 10.4 0.00 0.00 0.00 55 1014.0
20260506120936 53 107 3.5 6.1 0.00 0.00 0.00 57 1014.1
20260506115936 52 124 4.3 7.8 0.00 0.00 0.00 60 1014.2
20260506114934 51 115 6.1 10.4 0.00 0.00 0.00 61 1014.0
20260506113931 51 100 6.1 9.6 0.00 0.00 0.00 58 1013.8
20260506112929 51 100 6.1 9.6 0.00 0.00 0.00 58 1013.8
20260506111947 52 120 6.1 8.7 0.00 0.00 0.00 57 1013.7
20260506110925 53 109 6.1 9.6 0.00 0.00 0.00 55 1013.6
20260506105923 53 151 4.3 8.7 0.00 0.00 0.00 61 1013.6
20260506104921 53 124 6.1 9.6 0.00 0.00 0.00 60 1013.6
20260506103940 53 124 6.1 9.6 0.00 0.00 0.00 60 1013.6
20260506102917 53 121 7.0 11.3 0.00 0.00 0.00 63 1013.7
20260506101936 54 152 4.3 7.8 0.00 0.00 0.00 58 1013.6
20260506100933 53 124 5.2 9.6 0.00 0.00 0.00 57 1013.6
20260506095911 54 135 5.2 9.6 0.00 0.00 0.00 56 1013.6
20260506094909 55 143 3.5 7.8 0.00 0.00 0.00 52 1013.7
20260506093907 56 120 3.5 7.8 0.00 0.00 0.00 51 1013.7
20260506092906 56 211 1.7 5.2 0.00 0.00 0.00 43 1013.6
20260506091903 56 66 1.7 7.8 0.00 0.00 0.00 43 1013.7
20260506090901 56 75 3.5 6.1 0.00 0.00 0.00 36 1013.6
20260506085859 57 18 4.3 9.6 0.00 0.00 0.00 36 1013.7
20260506084857 56 63 1.7 6.1 0.00 0.00 0.00 38 1013.7
20260506083855 56 1 3.5 7.8 0.00 0.00 0.00 35 1013.8
20260506082854 57 56 4.3 7.8 0.00 0.00 0.00 36 1013.8
20260506081851 58 0 1.7 5.2 0.00 0.00 0.00 37 1013.7
20260506080849 57 56 2.6 5.2 0.00 0.00 0.00 40 1013.7
20260506072841 54 15 1.7 6.1 0.00 0.00 0.00 48 1013.4
20260506071919 53 36 3.5 7.8 0.00 0.00 0.00 46 1013.3
20260506070837 53 37 3.5 8.7 0.00 0.00 0.00 46 1013.3
20260506061828 51 48 2.6 6.1 0.00 0.00 0.00 65 1012.9
20260506060825 50 36 1.7 5.2 0.00 0.00 0.00 67 1012.8
20260506050813 45 346 1.7 5.2 0.00 0.00 0.00 80 1012.6
20260506044809 43 13 1.7 5.2 0.00 0.00 0.00 84 1012.7
20260506043827 42 329 1.7 4.3 0.00 0.00 0.00 84 1012.6
20260506042805 42 336 1.7 4.3 0.00 0.00 0.00 85 1012.5
20260506041803 41 345 0.9 3.5 0.00 0.00 0.00 86 1012.5
20260506040821 40 340 1.7 3.5 0.00 0.00 0.00 87 1012.3
20260506035759 40 323 1.7 3.5 0.00 0.00 0.00 87 1012.2
20260506034756 39 330 1.7 3.5 0.00 0.00 0.00 88 1012.1
20260506033756 39 311 1.7 3.5 0.00 0.00 0.00 89 1011.9
20260506032753 38 306 1.7 2.6 0.00 0.00 0.00 89 1011.8
20260506031751 38 303 1.7 3.5 0.00 0.00 0.00 89 1011.7
20260506030748 37 306 1.7 3.5 0.00 0.00 0.00 90 1011.6
20260506025806 37 309 1.7 3.5 0.00 0.00 0.00 90 1011.5
20260506024746 37 324 0.9 3.5 0.00 0.00 0.00 89 1011.4
20260506023742 37 332 0.9 2.6 0.00 0.00 0.00 90 1011.4
20260506022741 37 302 1.7 3.5 0.00 0.00 0.00 90 1011.2
20260506021739 38 310 1.7 3.5 0.00 0.00 0.00 90 1011.2
20260506020737 38 315 1.7 2.6 0.00 0.00 0.00 90 1011.1
20260506015755 38 303 1.7 3.5 0.00 0.00 0.00 90 1011.1
20260506014733 38 270 0.9 2.6 0.00 0.00 0.00 90 1010.9
20260506013731 38 284 1.7 3.5 0.00 0.00 0.00 91 1010.8
20260506012728 37 297 1.7 3.5 0.00 0.00 0.00 90 1010.8
20260506011727 37 300 1.7 3.5 0.00 0.00 0.00 90 1010.7
20260506010725 37 286 1.7 4.3 0.00 0.00 0.00 90 1010.7
20260506005723 36 308 1.7 3.5 0.00 0.00 0.00 89 1010.7
20260506004721 36 328 0.9 1.7 0.00 0.00 0.00 89 1010.6
20260506003718 36 315 0.9 1.7 0.00 0.00 0.00 89 1010.5
20260506002718 37 5 0.9 1.7 0.00 0.00 0.00 89 1010.5
20260506001735 37 5 0.9 2.6 0.00 0.00 0.00 89 1010.4
20260506000713 37 288 1.7 3.5 0.00 0.00 0.00 90 1010.3
20260505235752 36 270 1.7 3.5 0.00 0.00 0.00 90 1010.3
20260505234728 35 270 0.9 2.6 0.00 0.00 0.00 88 1010.1
20260505233706 34 270 0.9 1.7 0.00 0.00 0.00 87 1010.1
20260505232705 34 90 0.9 1.7 0.00 0.00 0.00 87 1010.2
20260505231702 35 90 0.9 1.7 0.00 0.00 0.00 86 1010.1
20260505230721 35 90 0.9 1.7 0.00 0.00 0.00 86 1010.1
20260505225659 36 67 0.9 1.7 0.00 0.00 0.00 86 1010.1
20260505224657 37 71 0.9 1.7 0.00 0.00 0.00 86 1010.2
20260505223655 37 40 0.9 1.7 0.00 0.00 0.00 87 1010.2
20260505222653 38 30 0.9 1.7 0.00 0.00 0.00 87 1010.2
20260505221651 38 315 0.9 2.6 0.00 0.00 0.00 87 1010.2
20260505220648 38 293 0.9 2.6 0.00 0.00 0.00 86 1010.1
20260505215647 38 315 0.9 2.6 0.00 0.00 0.00 86 1010.1
20260505214646 38 348 0.9 0.9 0.00 0.00 0.00 84 1010.0
20260505213642 38 90 0.9 1.7 0.00 0.00 0.00 84 1009.9
20260505212641 39 90 0.9 1.7 0.00 0.00 0.00 84 1009.8
20260505211659 40 90 0.9 1.7 0.00 0.00 0.00 84 1009.7
20260505210637 40 242 0.9 1.7 0.00 0.00 0.00 84 1009.7
20260505205635 40 240 1.7 2.6 0.00 0.00 0.00 84 1009.7
20260505204633 41 221 0.9 2.6 0.00 0.00 0.00 83 1009.6
20260505203631 41 270 0.9 1.7 0.00 0.00 0.00 83 1009.6
20260505202629 42 270 1.7 4.3 0.00 0.00 0.00 83 1009.5
20260505201629 42 240 2.6 4.3 0.00 0.00 0.00 82 1009.5
20260505200624 42 270 0.9 2.6 0.00 0.00 0.00 80 1009.4
20260505195624 42 270 0.9 2.6 0.00 0.00 0.00 79 1009.4
20260505194621 43 270 0.9 3.5 0.00 0.00 0.00 78 1009.3
20260505193620 43 270 0.9 2.6 0.00 0.00 0.00 76 1009.3
20260505192616 44 290 0.9 2.6 0.00 0.00 0.00 75 1009.3
20260505191615 44 338 0.9 3.5 0.00 0.00 0.00 74 1009.3
20260505190613 45 287 1.7 3.5 0.00 0.00 0.00 73 1009.1
20260505185631 46 295 0.9 2.6 0.00 0.00 0.00 71 1009.1
20260505184610 47 310 1.7 3.5 0.00 0.00 0.00 70 1009.1
20260505183607 48 315 0.9 3.5 0.00 0.00 0.00 68 1008.9
20260505182605 49 308 1.7 3.5 0.00 0.00 0.00 67 1008.8
20260505181603 50 307 1.7 4.3 0.00 0.00 0.00 66 1008.7
20260505180621 51 315 1.7 4.3 0.00 0.00 0.00 64 1008.6
20260505175600 51 315 1.7 5.2 0.00 0.00 0.00 63 1008.6
20260505174617 51 309 2.6 6.1 0.00 0.00 0.00 61 1008.6
20260505173556 51 302 2.6 6.1 0.00 0.00 0.00 60 1008.5
20260505172553 51 307 2.6 7.8 0.00 0.00 0.00 59 1008.4
20260505171551 52 315 5.2 10.4 0.00 0.00 0.00 57 1008.4
20260505170549 53 318 5.2 10.4 0.00 0.00 0.00 54 1008.4
20260505165608 53 302 3.5 7.0 0.00 0.00 0.00 55 1008.3
20260505164545 53 293 3.5 6.1 0.00 0.00 0.00 54 1008.1
20260505163543 53 291 4.3 9.6 0.00 0.00 0.00 51 1008.1
20260505162541 54 312 3.5 7.8 0.00 0.00 0.00 52 1008.1
20260505161538 53 303 3.5 9.6 0.00 0.00 0.00 52 1008.1
20260505160538 53 286 6.1 10.4 0.00 0.00 0.00 52 1008.1